Retour au catalogue

SATCOM 3 DEB

LostHEO
NORAD 32988·DEBRIS·🇺🇸 United States

Lancé Dec 7, 1979 depuis Cape Canaveral Space Force Station

Loading…

Prochains Passages (prochaines 24 heures)

TLE

PériméSource: Space-Track

Époque: Jul 7, 2019, 10:56 UTC

1 32988U 79101P   19188.45576803 -.00000172  00000-0  00000+0 0  9993
2 32988  10.4567   0.5928 4802481 291.6634   8.3472  1.81167885 76694

Suivez SATCOM 3 DEB en temps réel avec AllMySat

Download on the App Store